Terminal Aerodrome Forecast
Issued by NWS Sterling, VA

Current Version | Previous Version | Graphics & Text | Print | Product List | Glossary On
Versions: 1 2 3 4 5 6 7 8 9 10 11 12 13 14 15 16 17 18 19 20 21
000
FTUS41 KLWX 261529 AAA
TAFIAD
TAF AMD
KIAD 261529Z 2615/2718 32008KT P6SM FEW040
     FM270200 35004KT P6SM SCT250
     FM270600 VRB03KT 5SM BR FEW060
     FM270900 VRB04KT P6SM FEW250=

USA.gov is the U.S. government's official web portal to all federal, state and local government web resources and services.